User: anonymous   Login
Location: Bowman Observatory
(41.0326°N, 73.6210°W)
Time: 13:54:15
(UTC-04:00)
Language:

Cosmos 2298 Rocket - Orbit

View from above orbital plane
View from above orbital plane
View from above satellite
View from above satellite

Ground track
Ground track

The orbit data is extracted from the following two-line orbital elements,

1 23432U 94083B   16207.08286690 -.00000003  00000-0  85156-5 0  9997
2 23432  74.0316 176.1175 0004192 107.7507 321.3477 14.33447966129431
Epoch (UTC): 25 July 2016 01:59:19
Eccentricity: 0.0004192
inclination: 74.0316°
perigee height: 777 km
apogee height: 783 km
right ascension of ascending node: 176.1175°
argument of perigee: 107.7507°
revolutions per day: 14.33447966
mean anomaly at epoch: 321.3477°
orbit number at epoch: 12943

The dashed part of the orbit path shows where the satellite is in the earth's shadow,  

DLR